sat.trackr.live / text

‹ back to catalog

STARLINK-38061

NORAD 69715 · 2026-147M

PAYLOAD ACTIVE UNKNOWN

§ Identity

Operator
Country
US
Launch date
2026-06-28
Launch site
AFWTR
Launch vehicle
Mass (kg)
RCS (m²)

Purposes: comms

External: N2YO · Heavens-Above · Gunter

§ Orbital elements

Epoch: 2026-09-20T01:03:46.973952Z

Period
93.91 min
Inclination
97.2842°
Eccentricity
0.0001417
Mean motion
15.33452403 rev/d
Perigee alt
464.6 km
Apogee alt
466.5 km
Semi-major
6,843.7 km
B*
3.9998e-4
RAAN
299.4047°
Arg perigee
93.5039°
Mean anomaly
266.6366°
Rev number
1,416

§ Raw data

STARLINK-380611 69715U 26147M   26263.04429368  .00012863  00000+0  39998-3 0  99932 69715  97.2842 299.4047 0001417  93.5039 266.6366 15.33452403 14166

JSON: /api/v1/satellites/69715 · /tle

For live sub-satellite position, see the globe view (requires WebGL).

§ Visibility from observer

Set your observer location to see the next 7 days of passes ≥ 10°. The values pass through the URL so the page stays shareable.

No JS? Fill the form by hand. The geolocation button needs JavaScript.